Location: Unspecified
(0.0000°N, 0.0000°E)
Time: 08:39:10
(UTC+00:00)

deb Delta 104 - Pass Details

Date: 07 March 2026
Orbit: 754 x 1064 km, 103.0° (Epoch: 20 April)

Event Time Altitude Azimuth Distance (km) Brightness Sun altitude
Rises 19:10:50 0° 166° (SSE) 3,802 ? -14.9°
Reaches altitude 10° 19:13:24 10° 167° (SSE) 2,821 ? -15.5°
Maximum altitude 19:19:44 78° 253° (WSW) 1,002 ? -17.1°
Drops below altitude 10° 19:25:37 10° 339° (NNW) 2,622 ? -18.6°
Sets 19:27:56 0° 340° (NNW) 3,517 ? -19.2°
